Weather History for Tel Aviv, Israel

Change the Weather History Date:

Friday, January 31, 2014

  Actual Average Record
Temperature  
Mean Temperature 58 °F -  
Max Temperature 73 °F 62 °F 73 °F (2001)
Min Temperature 44 °F 48 °F 41 °F (1997)
Degree Days  
Heating Degree Days 6    
Growing Degree Days 8 (Base 50)    
Moisture  
Dew Point 45 °F    
Average Humidity 63    
Maximum Humidity 87    
Minimum Humidity 30    
Precipitation  
Precipitation 0.00 in - - ()
Sea Level Pressure  
Sea Level Pressure 30.12 in    
Wind  
Wind Speed 3 mph ()    
Max Wind Speed 10 mph    
Max Gust Speed -    
Visibility 6.0 miles    
Events      
Averages and records for this station are not official NWS values.
T = Trace of Precipitation, MM = Missing Value Source: Averaged Metar Reports

Daily Weather History Graph

Daily Weather History Graph

Search for Another Location

Airport:

Trip Planner

Search our weather history database for the weather conditions in past years. The results will help you decide how hot, cold, wet, or windy it might be!

Date:

Astronomy

Jan. 31, 2014 Rise Set
Actual Time 6:34 AM IST 5:13 PM IST
Civil Twilight 6:09 AM IST 5:38 PM IST
Nautical Twilight 5:39 AM IST 6:08 PM IST
Astronomical Twilight 5:11 AM IST 6:37 PM IST
Moon 6:34 AM IST (1/31) 6:06 PM IST (1/31)
Length of Visible Light 11h 29m
Length of Day
10h 38m
New Moon, 0% of the Moon is Illuminated
Jan 31
New Moon
Feb 6
First Quarter
Feb 15
Full
Feb 22
Last Quarter
Mar 1
New

Hourly Weather History & Observations

Time (IST) Temp. Windchill Dew Point Humidity Pressure Visibility Wind Dir Wind Speed Gust Speed Precip Events Conditions
12:20 AM 51.8 °F - 46.4 °F 82% 30.18 in - Variable 2.3 mph - N/A   Clear
12:50 AM 51.8 °F - 46.4 °F 82% 30.18 in - Variable 2.3 mph - N/A   Clear
1:20 AM 50.0 °F - 46.4 °F 87% 30.18 in - Variable 1.2 mph - N/A   Clear
1:50 AM 50.0 °F - 44.6 °F 82% 30.18 in - Variable 2.3 mph - N/A   Clear
2:00 AM 49 °F - 44 °F 79% 30.19 in 6 mi 3.5 mph - -  
2:20 AM 48.2 °F - 44.6 °F 87% 30.18 in - Variable 1.2 mph - N/A   Clear
2:50 AM 48.2 °F - 42.8 °F 82% 30.15 in - Variable 3.5 mph - N/A   Clear
3:20 AM 48.2 °F - 42.8 °F 82% 30.15 in - Variable 3.5 mph - N/A   Clear
3:50 AM 48.2 °F - 41.0 °F 76% 30.15 in - Variable 2.3 mph - N/A   Clear
4:20 AM 44.6 °F - 39.2 °F 81% 30.15 in - Variable 1.2 mph - N/A   Clear
4:50 AM 44.6 °F - 41.0 °F 87% 30.15 in - Variable 1.2 mph - N/A   Clear
5:00 AM 45 °F - 41 °F 79% 30.17 in 6 mi 1.2 mph - -  
5:20 AM 46.4 °F - 41.0 °F 81% 30.15 in - Variable 2.3 mph - N/A   Clear
5:50 AM 44.6 °F 43.1 °F 41.0 °F 87% 30.15 in - Variable 3.5 mph - N/A   Clear
6:20 AM 44.6 °F 41.4 °F 39.2 °F 81% 30.15 in - East 5.8 mph - N/A   Clear
6:50 AM 44.6 °F 41.4 °F 39.2 °F 81% 30.15 in - East 5.8 mph - N/A   Clear
7:20 AM 46.4 °F 45.2 °F 39.2 °F 76% 30.15 in - Variable 3.5 mph - N/A   Clear
7:50 AM 50.0 °F - 39.2 °F 66% 30.15 in - Variable 1.2 mph - N/A   Clear
8:00 AM 49 °F - 39 °F 59% 30.18 in 6 mi 1.2 mph - -   Clear
8:20 AM 55.4 °F - 39.2 °F 54% 30.15 in - Variable 1.2 mph - N/A   Clear
8:50 AM 55.4 °F - 42.8 °F 63% 30.15 in - Variable 2.3 mph - N/A   Clear
9:20 AM 59.0 °F - 42.8 °F 55% 30.18 in - Variable 2.3 mph - N/A   Clear
9:50 AM 62.6 °F - 44.6 °F 52% 30.18 in - Variable 1.2 mph - N/A   Clear
10:20 AM 66.2 °F - 42.8 °F 43% 30.15 in - Variable 2.3 mph - N/A   Clear
10:50 AM 68.0 °F - 42.8 °F 40% 30.15 in - Variable 1.2 mph - N/A   Clear
11:00 AM 67 °F - 43 °F 30% 30.17 in 6 mi 1.2 mph - -   Clear
11:20 AM 69.8 °F - 41.0 °F 35% 30.12 in - Variable 1.2 mph - N/A   Clear
11:50 AM 73.4 °F - 42.8 °F 33% 30.12 in - Variable 1.2 mph - N/A   Clear
12:20 PM 69.8 °F - 41.0 °F 35% 30.09 in - Variable 2.3 mph - N/A   Clear
12:50 PM 71.6 °F - 41.0 °F 33% 30.09 in - Variable 3.5 mph - N/A   Clear
1:20 PM 69.8 °F - 44.6 °F 40% 30.09 in - West 9.2 mph - N/A   Clear
1:50 PM 68.0 °F - 44.6 °F 43% 30.06 in - WNW 9.2 mph - N/A   Clear
2:00 PM 68 °F - 44 °F 30% 30.09 in 6 mi WNW 9.2 mph - -   Clear
2:20 PM 69.8 °F - 44.6 °F 40% 30.06 in - NW 10.4 mph - N/A   Clear
2:50 PM 69.8 °F - 44.6 °F 40% 30.06 in - NW 9.2 mph - N/A   Clear
3:20 PM 68.0 °F - 46.4 °F 46% 30.06 in - NW 9.2 mph - N/A   Clear
3:50 PM 68.0 °F - 48.2 °F 49% 30.06 in - NW 9.2 mph - N/A   Clear
4:20 PM 66.2 °F - 50.0 °F 56% 30.06 in - Variable 3.5 mph - N/A   Clear
4:50 PM 66.2 °F - 50.0 °F 56% 30.06 in - NNW 8.1 mph - N/A   Clear
5:00 PM 66 °F - 49 °F 45% 30.08 in 6 mi NNW 8.1 mph - -   Mostly Cloudy
5:20 PM 64.4 °F - 50.0 °F 59% 30.06 in - North 4.6 mph - N/A   Clear
5:50 PM 62.6 °F - 50.0 °F 63% 30.09 in - NNW 5.8 mph - N/A   Clear
6:20 PM 62.6 °F - 50.0 °F 63% 30.09 in - Variable 1.2 mph - N/A   Clear
6:50 PM 62.6 °F - 50.0 °F 63% 30.09 in - Variable 2.3 mph - N/A   Clear
7:20 PM 60.8 °F - 50.0 °F 68% 30.09 in - Variable 2.3 mph - N/A   Clear
7:50 PM 59.0 °F - 48.2 °F 67% 30.09 in - Variable 1.2 mph - N/A   Clear
8:00 PM 60 °F - 49 °F 58% 30.11 in 6 mi 1.2 mph - -   Clear
8:20 PM 59.0 °F - 50.0 °F 72% 30.09 in - Variable 2.3 mph - N/A   Clear
8:50 PM 57.2 °F - 50.0 °F 77% 30.09 in - Variable 3.5 mph - N/A   Clear
9:20 PM 57.2 °F - 50.0 °F 77% 30.09 in - Variable 1.2 mph - N/A   Clear
9:50 PM 55.4 °F - 48.2 °F 77% 30.09 in - Variable 2.3 mph - N/A   Clear
10:20 PM 55.4 °F - 48.2 °F 77% 30.09 in - Variable 2.3 mph - N/A   Clear
10:50 PM 55.4 °F - 46.4 °F 72% 30.09 in - Variable 2.3 mph - N/A   Clear
11:00 PM 55 °F - 47 °F 67% 30.11 in 6 mi 2.3 mph - -   Clear
11:20 PM 53.6 °F - 46.4 °F 77% 30.09 in - ENE 4.6 mph - N/A   Clear
11:50 PM 55.4 °F - 46.4 °F 72% 30.06 in - SE 4.6 mph - N/A   Clear